Location: Bonningues
(50.7927°N, 2.0150°E)
Time: 04:25:14
(UTC+00:00)

Cosmos 1908 Rocket - Pass Details

Date: 08 August 2020
Orbit: 606 x 632 km, 82.5° (Epoch: 23 September)

Event Time Altitude Azimuth Distance (km) Brightness Sun altitude
Exits shadow 23:18:32 44° 94° (E) 859 4.1 -22.9°
Maximum altitude 23:18:33 44° 93° (E) 859 4.1 -22.9°
Drops below altitude 10° 23:22:43 10° 22° (NNE) 1,985 6.9 -23.0°
Sets 23:25:00 0° 16° (NNE) 2,892 8.1 -23.0°
